Погода в Саянске

Россия / Иркутская область     54°06′38″N   102°10′48″E
темп.,
°C
ветер,
м/с
пор.,
м/с
влажн.,
%
обл.,
%
осадки,
мм/ч
давл.,
гПа
погр.,
м
6 марта, сб
сб623:00−12юв4109241 0.0 1023302
02:00−13ююв249671 0.0 1024133
05:00−12юв2295100 0.1 102539
08:00−12юв229693 0.1 102725
11:00−8ююв3594100 0.0 1026173
14:00−3ююв369097 0.0 1023369
17:00−2ююв368925 0.0 1020358
20:00−7юв239513 0.0 102253
7 марта, вс
вс723:00−10вюв12953 0.0 102121
02:00−9вюв229448 0.0 102023
05:00−11юв239386 0.0 101844
08:00−11юв238891 0.0 101853
11:00−5юв358489 0.0 1016229
14:00−2ююв249072 0.0 1014272
17:00−1вюв019173 0.0 1014230
20:00−6в019486 0.0 101621
8 марта, пн
пн823:00−5зюз1293100 0.0 101921
02:00−6ююв1192100 0.0 102021
05:00−6ссз5119293 0.7 1022572
08:00−9зсз2139696 1.1 1026745
11:00−7сз498096 0.1 1027758
14:00−5зсз257572 0.1 1027877
17:00−5юз127910 0.0 1026634
20:00−10юв23928 0.0 102644
9 марта, вт
вт923:00−9юв4129094 0.0 1024352
02:00−8юв6158497 0.0 1020498
05:00−9юв5118999 0.0 1018338
08:00−11юв2596100 0.0 1018114
11:00−6ююв2293100 0.0 1018175
14:00−2ю119893 0.0 1018268
17:00−1ююз119433 0.0 1018233
20:00−5ююз239360 0.0 102242
10 марта, ср
ср1023:00−4ссз269398 0.1 1026169
02:00−9ссз228597 0.1 102821
05:00−11зсз128558 0.0 103021
08:00−13всв018577 0.0 103121
11:00−7юв248394 0.0 1029302
14:00−5юв488188 0.0 1025624
17:00−4юв5108533 0.0 1022608
20:00−5юв4139032 0.0 1021397